Regional Weather Roundup
Issued by NWS Little Rock, AR

Home | Current Version | Previous Version | Graphics & Text | Print | Product List | Glossary On
Versions: 1 2 3 4 5 6 7 8 9 10 11 12 13 14 15 16 17 18 19 20 21 22 23 24 25 26 27 28 29 30 31 32 33 34 35 36 37 38 39 40 41 42 43 44 45 46 47 48 49 50
000
ASUS44 KLZK 280405
RWRLZK

WEATHER ROUNDUP FOR ARKANSAS
NATIONAL WEATHER SERVICE LITTLE ROCK AR
1100 PM CDT WED MAY 27 2015

NOTE: "FAIR" INDICATES FEW OR NO CLOUDS BELOW 12,000 FEET WITH NO
SIGNIFICANT WEATHER AND/OR OBSTRUCTIONS TO VISIBILITY.

ARZ001-003-010-029-280500-
NORTHWEST ARKANSAS

CITY           SKY/WX    TMP DP  RH WIND       PRES   REMARKS
FAYETTEVILLE   MOCLDY    65  64  97 CALM      30.12R
FORT SMITH     MOCLDY    71  67  87 CALM      30.06R
HARRISON       MOCLDY    67  65  93 E6        30.11S
BENTONVILLE    MOCLDY    68  61  77 SE9       30.10F
ROGERS         CLOUDY    66  64  93 SE7       30.11R
SILOAM SPGS    MOCLDY    66  59  77 SE6       30.11S
HIGHFILL       MOCLDY    67  63  87 E5        30.10
$$

ARZ004-005-016-280500-
NORTH CENTRAL ARKANSAS

CITY           SKY/WX    TMP DP  RH WIND       PRES   REMARKS
BATESVILLE     CLEAR     72  66  83 E3        30.11S
FLIPPIN        PTCLDY    70  66  88 CALM      30.08S
MTN HOME       PTCLDY    70  68  93 S6        30.09F
$$

ARZ040-041-280500-
WEST CENTRAL ARKANSAS

CITY           SKY/WX    TMP DP  RH WIND       PRES   REMARKS
MENA           PTCLDY    70  68  94 CALM      30.11R
MOUNT IDA      CLEAR     70  67  90 CALM      30.08R
$$

ARZ009-017-025-026-028-280500-
NORTHEAST ARKANSAS

CITY           SKY/WX    TMP DP  RH WIND       PRES   REMARKS
CORNING        FAIR      72  68  88 S6        30.13R
JONESBORO      PTCLDY    68  66  93 S3        30.13R
NEWPORT        CLEAR     71  69  93 S5        30.13R
WALNUT RIDGE   CLEAR     70  66  88 S8        30.12R
BLYTHEVILLE    MOCLDY    71  69  93 SE5       30.13R
$$

ARZ022-023-033-042-044-280500-
CENTRAL ARKANSAS

CITY           SKY/WX    TMP DP  RH WIND       PRES   REMARKS
LITTLE ROCK    CLEAR     74  69  85 CALM      30.11R
N LITTLE ROCK  CLEAR     73  72  94 SE7       30.11R
SEARCY         CLEAR     70  69  97 CALM      30.12S
HOT SPRINGS    CLEAR     72  67  84 E6        30.10R
RUSSELLVILLE   FAIR      74  69  85 E5        30.08R
CLINTON        FAIR      70  70 100 CALM      30.12R
$$

ARZ036-280500-
EAST ARKANSAS

CITY           SKY/WX    TMP DP  RH WIND       PRES   REMARKS
WEST MEMPHIS   MOCLDY    68  68 100 CALM      30.11R
$$

ARZ050-053-066-070-073-280500-
SOUTHWEST ARKANSAS

CITY           SKY/WX    TMP DP  RH WIND       PRES   REMARKS
ARKADELPHIA    FAIR      75  74  97 CALM      30.10R
CAMDEN         CLEAR     72  66  83 CALM      30.09R
TEXARKANA      PTCLDY    73  68  84 SE5       30.09R
EL DORADO      CLEAR     71  68  90 SE5       30.10R
DE QUEEN       MOCLDY    70  69  97 E16       30.06R FOG
$$

ARZ056-057-069-280500-
SOUTHEAST ARKANSAS

CITY           SKY/WX    TMP DP  RH WIND       PRES   REMARKS
PINE BLUFF     CLEAR     72  69  90 SE7       30.11R
STUTTGART      PTCLDY    72  68  88 SE7       30.11S
MONTICELLO     CLEAR     70  69  97 CALM      30.11R

$$




USA.gov is the U.S. government's official web portal to all federal, state and local government web resources and services.